Weather in Rozhdestveno

Russia / Samara Oblast     53°13′44″N   50°03′37″E
temp.,
°C
wind,
m/s
gust,
m/s
humid.,
%
clouds,
%
prec.,
mm/h
press.,
hPa
HPBL,
m
2 march, tue
tue201:00−17sw229952 0.0 102035
04:00−14sw399876 0.1 1018249
07:00−12sw41195100 0.0 1014364
10:00−9sw61295100 1.1 1011512
13:00−4sw71393100 1.5 1008760
16:00−1sw61396100 1.9 1005823
19:00−1sw61296100 1.7 1003764
22:000wsw4898100 2.5 1003415
3 march, wed
wed301:00−3wnw2296100 0.8 100264
04:00−5nw2293100 0.8 100222
07:00−6wnw1294100 0.0 100221
10:00−3wnw149388 0.0 1004227
13:00−2wnw368942 0.0 1004657
16:00−3nw378670 0.1 1004885
19:00−6nw399377 0.2 1006303
22:00−8wnw3119260 0.3 1008386
4 march, thu
thu401:00−10wnw269353 0.1 1008157
04:00−13w239534 0.1 100935
07:00−13wsw389723 0.0 1009193
10:00−9wsw489560 0.1 1009341
13:00−5sw51194100 0.1 1007577
16:00−3sw71496100 0.7 1005860
19:00−1sw71593100 1.3 10031094
22:000sw71590100 1.5 10021209
5 march, fri
fri501:000sw71489100 0.1 10011024
04:00−1sw71487100 0.1 1001874
07:00−2sw61495100 0.1 1001787
10:000wsw51199100 1.7 1003773
13:00−1nw3794100 0.8 1005588
16:00−2nw368696 0.8 1009635
19:00−8nnw229178 0.0 101221
22:00−11nne118756 0.0 101421
6 march, sat
sat601:00−11ene118868 0.0 101421
04:00−11e229185 0.0 101371
07:00−10e4995100 0.4 1010308
10:00−7ene51095100 4.4 1006438
13:00−6ne4795100 3.3 1004318
16:00−6nne4795100 5.2 1003391
19:00−9wnw399294 0.0 1006334
22:00−12wnw239465 0.0 100948